Location: Cronhütte
(48.9135°N, 9.6869°E)
Time: 18:58:33
(UTC+00:00)

Cosmos 1703 - Pass Details

Date: 23 May 2024
Orbit: 485 x 499 km, 82.5° (Epoch: 23 June)

Event Time Altitude Azimuth Distance (km) Brightness Sun altitude
Exits shadow 02:01:34 15° 191° (S) 1,445 4.9 -11.5°
Maximum altitude 02:04:40 84° 277° (W) 510 3.1 -11.2°
Drops below altitude 10° 02:08:27 10° 9° (N) 1,715 6.8 -10.8°
Sets 02:10:34 0° 10° (N) 2,601 7.9 -10.5°
